TimeEST,TemperatureF,Dew PointF,Humidity,Sea Level PressureIn,VisibilityMPH,Wind Direction,Wind SpeedMPH,Gust SpeedMPH,PrecipitationIn,Events,Conditions,WindDirDegrees,DateUTC
12:53 AM,54.0,52.0,93,29.96,6.0,South,9.2,-,N/A,,Overcast,180,2012-12-05 05:53:00
1:53 AM,53.1,51.1,93,29.94,6.0,South,5.8,-,N/A,,Overcast,180,2012-12-05 06:53:00
2:25 AM,51.8,51.8,100,29.92,6.0,South,5.8,-,N/A,,Overcast,170,2012-12-05 07:25:00
2:53 AM,53.1,51.1,93,29.91,7.0,Variable,3.5,-,0.00,,Overcast,0,2012-12-05 07:53:00
3:53 AM,52.0,50.0,93,29.90,7.0,South,5.8,-,0.00,Rain,Light Rain,180,2012-12-05 08:53:00
4:44 AM,51.8,50.0,94,29.90,6.0,Calm,Calm,-,0.01,,Overcast,0,2012-12-05 09:44:00
4:53 AM,52.0,50.0,93,29.90,6.0,Calm,Calm,-,0.01,,Overcast,0,2012-12-05 09:53:00
5:37 AM,51.8,50.0,94,29.92,4.0,NNW,4.6,-,0.00,Rain,Light Rain,330,2012-12-05 10:37:00
5:46 AM,51.8,50.0,94,29.92,6.0,NNW,4.6,-,0.00,Rain,Light Rain,340,2012-12-05 10:46:00
5:53 AM,53.1,48.9,86,29.93,8.0,NNW,5.8,-,0.00,Rain,Light Rain,330,2012-12-05 10:53:00
6:21 AM,51.8,46.4,82,29.93,10.0,Calm,Calm,-,0.00,Rain,Light Rain,0,2012-12-05 11:21:00
6:53 AM,51.1,46.0,83,29.96,10.0,NW,3.5,-,0.00,,Overcast,310,2012-12-05 11:53:00
7:53 AM,51.1,45.0,80,29.98,10.0,NW,3.5,-,N/A,,Scattered Clouds,320,2012-12-05 12:53:00
9:53 AM,53.1,37.9,57,29.99,10.0,NW,5.8,-,N/A,,Clear,320,2012-12-05 14:53:00
10:53 AM,53.1,37.0,55,29.98,10.0,NNW,11.5,-,N/A,,Clear,330,2012-12-05 15:53:00
11:53 AM,54.0,35.1,49,29.97,10.0,NW,13.8,19.6,N/A,,Partly Cloudy,310,2012-12-05 16:53:00
12:53 PM,52.0,34.0,50,29.96,10.0,NW,12.7,21.9,N/A,,Scattered Clouds,320,2012-12-05 17:53:00
1:53 PM,55.9,34.0,44,29.96,10.0,NW,15.0,21.9,N/A,,Mostly Cloudy,310,2012-12-05 18:53:00
2:53 PM,48.9,33.1,54,30.00,10.0,NNW,13.8,20.7,N/A,,Scattered Clouds,340,2012-12-05 19:53:00
3:53 PM,45.0,28.9,53,30.04,10.0,NW,15.0,25.3,N/A,,Scattered Clouds,320,2012-12-05 20:53:00
4:53 PM,43.0,28.0,56,30.07,10.0,NNW,9.2,-,N/A,,Overcast,330,2012-12-05 21:53:00
5:53 PM,42.1,21.9,45,30.10,10.0,NW,13.8,26.5,N/A,,Mostly Cloudy,320,2012-12-05 22:53:00
6:53 PM,39.0,23.0,53,30.12,10.0,NNW,20.7,27.6,N/A,,Partly Cloudy,340,2012-12-05 23:53:00
7:53 PM,37.9,19.0,47,30.15,10.0,NNW,13.8,25.3,N/A,,Mostly Cloudy,330,2012-12-06 00:53:00
8:53 PM,37.0,19.0,48,30.16,10.0,NNW,16.1,23.0,N/A,,Overcast,330,2012-12-06 01:53:00
9:53 PM,36.0,17.1,46,30.19,10.0,NW,20.7,27.6,N/A,,Scattered Clouds,320,2012-12-06 02:53:00
10:53 PM,35.1,16.0,46,30.19,10.0,NNW,15.0,31.1,N/A,,Partly Cloudy,330,2012-12-06 03:53:00
11:53 PM,34.0,16.0,48,30.22,10.0,NW,16.1,23.0,N/A,,Mostly Cloudy,320,2012-12-06 04:53:00